User: anonymous   Login
Location: *
(90.0000°N, 180.0000°W)
Time: 13:41:26
(UTC+02:00)
Language:

Cosmos 1825 - Orbit

View from above orbital plane
View from above orbital plane
View from above satellite
View from above satellite

Ground track
Ground track

The orbit data is extracted from the following two-line orbital elements,

1 17566U 87024A   15145.53206606  .00002060  00000-0  10617-3 0  9996
2 17566 082.5052 316.0286 0003073 329.5278 030.5776 15.15862551539547
Epoch (UTC): 25 May 2015 12:46:10
Eccentricity: 0.0003073
inclination: 82.5052°
perigee height: 516 km
apogee height: 520 km
right ascension of ascending node: 316.0286°
argument of perigee: 329.5278°
revolutions per day: 15.15862551
mean anomaly at epoch: 30.5776°
orbit number at epoch: 53954

The dashed part of the orbit path shows where the satellite is in the earth's shadow,  

DLR